This is the latest recevied weather packets stored in our database for station/object NY5V. If no packets are shown the sender has not sent any weather packets the latest 1 day(s).
| Time | Temp. | Humidity | Pressure | Rain* | Wind** | Luminosity | Snow |
|---|---|---|---|---|---|---|---|
| 1777987194 | 20.56° C | 94% | 1007.1 hPa | 0 mm | 0.45 m/s, 43° | 19 W/m² | - |
| 1777986595 | 20.56° C | 93% | 1007.1 hPa | 0 mm | 0.89 m/s, 44° | 15 W/m² | - |
| 1777985990 | 20.56° C | 93% | 1007.3 hPa | 0 mm | 0.89 m/s, 48° | 15 W/m² | - |
| 1777985389 | 20.56° C | 92% | 1007.4 hPa | 0 mm | 0.89 m/s, 48° | 13 W/m² | - |
| 1777984787 | 21.11° C | 91% | 1007 hPa | 0 mm | 1.34 m/s, 6° | 8 W/m² | - |
| 1777984186 | 21.11° C | 90% | 1007.2 hPa | 0 mm | 1.79 m/s, 31° | 5 W/m² | - |
| 1777983586 | 21.11° C | 90% | 1006.8 hPa | 0 mm | 0.89 m/s, 353° | 5 W/m² | - |
| 1777982984 | 21.11° C | 90% | 1006.8 hPa | 0 mm | 1.79 m/s, 314° | 3 W/m² | - |
| 1777982380 | 21.11° C | 90% | 1006.6 hPa | 0 mm | 0.45 m/s, 32° | 2 W/m² | - |
| 1777981775 | 20.56° C | 90% | 1006.6 hPa | 0 mm | 1.34 m/s, 8° | 1 W/m² | - |
| 1777981174 | 20.56° C | 90% | 1006.7 hPa | 0 mm | 2.68 m/s, 67° | 1 W/m² | - |
| 1777980571 | 20.56° C | 90% | 1006.7 hPa | 0 mm | 2.24 m/s, 343° | 0 W/m² | - |
| 1777979971 | 20.56° C | 90% | 1006.7 hPa | 0 mm | 1.34 m/s, 64° | 0 W/m² | - |
| 1777979368 | 20.56° C | 90% | 1006.8 hPa | 0 mm | 0.45 m/s, 54° | 0 W/m² | - |
| 1777978768 | 20.56° C | 90% | 1006.5 hPa | 0 mm | 1.79 m/s, 342° | 0 W/m² | - |
| 1777978166 | 20.56° C | 90% | 1006.7 hPa | 0 mm | 2.68 m/s, 5° | 0 W/m² | - |
| 1777977566 | 20.56° C | 90% | 1006.6 hPa | 0 mm | 0.45 m/s, 12° | 0 W/m² | - |
| 1777976967 | 20.56° C | 90% | 1006.3 hPa | 0 mm | 0.89 m/s, 12° | 0 W/m² | - |
| 1777976366 | 20.56° C | 90% | 1006.5 hPa | 0 mm | 0.89 m/s, 355° | 0 W/m² | - |
| 1777975762 | 20.56° C | 90% | 1006.5 hPa | 0 mm | 0.89 m/s, 28° | 0 W/m² | - |
| 1777975161 | 20.56° C | 90% | 1006.4 hPa | 0 mm | 0.45 m/s, 45° | 0 W/m² | - |
| 1777974560 | 20° C | 90% | 1006.1 hPa | 0 mm | 0.89 m/s, 49° | 0 W/m² | - |
| 1777973959 | 20° C | 90% | 1006.4 hPa | 0 mm | 0.45 m/s, 37° | 0 W/m² | - |
| 1777973359 | 20° C | 90% | 1006.5 hPa | 0 mm | 1.79 m/s, 46° | 0 W/m² | - |
| 1777972754 | 20° C | 90% | 1006.5 hPa | 0 mm | 0.89 m/s, 33° | 0 W/m² | - |
* Rain latest hour (hover to see other rain measurements)
** Current wind speed in m/s (hover to see current wind gust speed)